Location: Wanzleben
(52.0609°N, 11.4408°E)
Time: 02:14:02
(UTC+00:00)

COSMOS 2406 - Pass Details

Date: 24 January 2021
Orbit: 841 x 865 km, 71.0° (Epoch: 05 March)

Event Time Altitude Azimuth Distance (km) Brightness Sun altitude
Rises 18:21:44 0° 327° (NNW) 3,460 6.8 -23.3°
Reaches altitude 10° 18:24:13 10° 325° (NW) 2,518 6.1 -23.7°
Maximum altitude 18:29:57 65° 245° (WSW) 950 3.6 -24.6°
Enters shadow 18:34:35 16° 167° (SSE) 2,115 5.1 -25.3°
